Regional Weather Roundup
Issued by NWS

Home | Current Version | Previous Version | Text Only | Print | Product List | Glossary Off
Versions: 1 2 3 4 5 6 7 8 9 10 11 12 13 14 15 16 17 18 19 20 21 22 23 24 25 26 27 28 29 30 31 32 33 34 35 36 37 38 39 40 41 42 43 44 45 46 47 48 49 50

000
ASUS45 KBOU 291207
RWRCO

WEATHER ROUNDUP FOR COLORADO
NATIONAL WEATHER SERVICE DENVER/BOULDER CO
600 AM MDT FRI JUL 29 2016

NOTE: "FAIR" INDICATES FEW OR NO CLOUDS BELOW 12000 FEET WITH NO
SIGNIFICANT WEATHER AND/OR OBSTRUCTIONS TO VISIBILITY.

COZ001>005-013-030-031-291300-
...NORTHWEST COLORADO...

CITY           SKY/WX    TMP DP  RH WIND       PRES   REMARKS
CRAIG          FAIR      45  38  76 CALM      30.25R
HAYDEN         FAIR      52  32  46 E7        30.25R
MEEKER         FAIR      49  36  61 CALM      30.26R
MOUNT WERNER   NOT AVBL
STEAMBOAT SPGS FAIR      46  37  72 CALM      30.27R
WALDEN         FAIR      37  32  81 SE6       30.37R
$$

COZ006>008-011-291300-
...WEST CENTRAL VALLEYS...

CITY           SKY/WX    TMP DP  RH WIND       PRES   REMARKS
GRAND JUNCTION FAIR      69  34  27 SE3       30.07R
MONTROSE       FAIR      59  37  44 SE8       30.19R
EAGLE          FAIR      50  32  50 SE5       30.28R
RIFLE          FAIR      55  33  43 CALM      30.18R
DELTA          NOT AVBL
NUCLA          NOT AVBL
$$

COZ017>023-064>068-291300-
...SOUTHWEST COLORADO...

CITY           SKY/WX    TMP DP  RH WIND       PRES   REMARKS
DURANGO        FAIR      56  40  55 N3        30.25R
CORTEZ         FAIR      56  40  55 CALM      30.18R
PAGOSA SPRINGS FAIR      54  37  53 CALM      30.34S
TELLURIDE      FAIR      55  32  40 SE6       30.47R
WOLF CREEK PAS FAIR      50  34  53 SW17      30.68S
$$

COZ009-010-012-014-032>034-037-058>063-291300-
...CENTRAL COLORADO...

CITY           SKY/WX    TMP DP  RH WIND       PRES   REMARKS
ASPEN          FAIR      47  35  63 SW7       30.32R
BUENA VISTA    FAIR      51  41  69 W7        30.37S
COPPER MTN     FAIR      54  23  30 W9G17     30.63R
BERTHOUD PASS  FAIR      45  32  61 NW16G22   30.64S
COTTONWOOD PAS FAIR      54  45  71 CALM      30.49R
GUNNISON       FAIR      45  36  70 CALM      30.38R
KREMMLING      FAIR      39  32  75 CALM      30.34R
LEADVILLE      FAIR      47  43  86 CALM      30.48S
MONARCH PASS   FAIR      50  34  53 MISG      30.74R
SALIDA         FAIR      56  50  81 W6        30.42R
SUNLIGHT       FAIR      57  25  28 MISG      30.58
WILKERSON PASS FAIR      46  45  93 W6        30.60S FOG
$$

COZ069>075-291300-
...SAN LUIS VALLEY/SANGRE DE CRISTO MOUNTAINS...

CITY           SKY/WX    TMP DP  RH WIND       PRES   REMARKS
ALAMOSA        FAIR      51  43  74 E3        30.30S
LA VETA PASS   FAIR      54  41  62 S9G16     30.49F
SAGUACHE       FAIR      54  34  47 NW10      30.35R
$$

COZ035-036-038>040-291300-
...NORTHERN COLORADO FRONT RANGE...

CITY           SKY/WX    TMP DP  RH WIND       PRES   REMARKS
DENVER INTL AP FAIR      60  57  89 SE9       30.19S
DMNS CITY PARK   N/A     62  57  83 S1        30.19R
AURORA         PTCLDY    59  59 100 SE9       30.21S
FRONT RANGE AP NOT AVBL
ERIE MUNI ARPT CLOUDY    66  59  77 CALM      30.19R
BOULDER MUN AP NOT AVBL
CENTENNIAL     FAIR      60  56  86 S5        30.21R
BROOMFIELD     CLOUDY    64  59  82 E3        30.22R
LONGMONT       NOT AVBL
$$

COZ041-046-047-076>085-087-088-291300-
...PIKES PEAK/PALMER DIVIDE AND SOUTHERN FOOTHILLS...

CITY           SKY/WX    TMP DP  RH WIND       PRES   REMARKS
COLO. SPRINGS  FAIR      58  55  90 N3        30.26S
A. F. ACADEMY  CLOUDY    58  57  97 VRB2      30.26F
SCHRIEVER AFB  NOT AVBL
ELLICOTT       NOT AVBL
FALCON         NOT AVBL
FORT CARSON    FAIR      58  55  88 NW3       30.22S
LIMON          MOCLDY    58  57  97 CALM      30.21F
MONUMENT HILL  FAIR      52  52 100 S8        30.30S
TRINIDAD       NOT AVBL
$$

COZ042>045-048>051-090-091-291300-
...NORTHEAST COLORADO...

CITY           SKY/WX    TMP DP  RH WIND       PRES   REMARKS
GREELEY ARPT   FAIR      63  57  82 NE3       30.18F
AKRON          FAIR      58  55  90 N5        30.16S
BURLINGTON     FAIR      60  57  89 CALM      30.16R
WRAY           FAIR     N/A N/A N/A N3        30.12F
STERLING       NOT AVBL
HOLYOKE        NOT AVBL
FORT MORGAN    NOT AVBL
$$

COZ086-089-092>099-291300-
...SOUTHEAST COLORADO...

CITY           SKY/WX    TMP DP  RH WIND       PRES   REMARKS
PUEBLO         FAIR      63  58  83 N3        30.17S
LA JUNTA       FAIR      63  60  90 NE8       30.16R
LAMAR          CLOUDY    64  61  90 NE5       30.13R
SPRINGFIELD      N/A     63  56  78 N12       30.16R
$$



USA.gov is the U.S. government's official web portal to all federal, state and local government web resources and services.